Regional Weather Roundup
Issued by NWS Grand Forks, ND

Home | Current Version | Previous Version | Text Only | Print | Product List | Glossary On
Versions: 1 2 3 4 5 6 7 8 9 10 11 12 13 14 15 16 17 18 19 20 21 22 23 24 25 26 27 28 29 30 31 32 33 34 35 36 37 38 39 40 41 42 43 44 45 46 47 48 49 50
000
ASUS43 KFGF 300131
RWRFGF
PRAIRIE TO PINES  WEATHER ROUNDUP
NATIONAL WEATHER SERVICE EASTERN NORTH DAKOTA/GRAND FORKS ND
800 PM CDT SAT AUG 29 2015

 **SATELLITE DATA USED TO AUGMENT SKY COVER AT AUTOMATED STATIONS**
 *****  WEATHER ACROSS EASTERN NORTH DAKOTA  *****

CITY           SKY/WX    TMP DP  RH WIND       PRES   REMARKS
GRAND FORKS    MOCLDY    73  68  84 S6        29.82S
GRAND FRKS AFB MOCLDY    73  68  85 S7        29.83S
GRAND FRKS NWS   N/A     75 N/A N/A SW3         N/A
DEVILS LAKE    PTCLDY    75  64  69 S9        29.81R
FARGO          PTCLDY    78  68  71 S15       29.86S
WAHPETON ARPT  PTCLDY    72  63  73 SE10      29.91S
$$

 ***** WEATHER ACROSS CENTRAL AND WESTERN NORTH DAKOTA  *****

CITY           SKY/WX    TMP DP  RH WIND       PRES   REMARKS
BISMARCK       PTCLDY    80  62  54 S9        29.82F HAZE
MINOT          PTCLDY    82  56  40 SE7       29.77F HAZE
JAMESTOWN      PTCLDY    77  71  82 S6        29.85S
MINOT AFB      MOCLDY    82  58  44 SE1       29.76S
GARRISON         N/A     80  60  50 SE7       29.79F
WILLISTON      MOCLDY    80  59  48 N5        29.77F HAZE
DICKINSON      PTCLDY    83  47  28 S7        29.82S
HETTINGER      CLEAR     84  47  27 SE6       29.88S
$$

 *****  OTHER AIRPORT OBSERVATIONS IN OUR AREA  *****

CITY           SKY/WX    TMP DP  RH WIND       PRES   REMARKS
WALHALLA       FAIR      73  73 100 MISG      29.79R
GRAFTON AIRPOR FAIR      73  72  94 S10       29.80F
VALLEY CITY AR FAIR      73  73 100 S7        29.87S
CANDO          FAIR      73  64  73 S8        29.80S
CAVALIER APRT  FAIR      75  70  83 S7        29.78R
GWINNER          N/A     73  73 100 S6        29.89S
SHEYENNE NWR     N/A     75  69  82 S3        29.95S
ROLLA          FAIR      72  61  68 SW10      29.81S
 ***** THE ABOVE OBSERVATIONS ARE NON NWS ARE NOT QUALITY
       CONTROLLED AND MAY MIS-REPORT RAIN FOR SNOW...
$$

  *****  WEATHER ACROSS NORTHERN MINNESOTA  *****

CITY           SKY/WX    TMP DP  RH WIND       PRES   REMARKS
FLAG ISLAND    CLOUDY    70  66  88 SE12      29.84S
WARROAD        CLOUDY    72  66  83 SE5       29.85F
ROSEAU         CLOUDY    72  66  83 S7        29.84F
HALLOCK        CLEAR     73  70  88 S9        29.80R
THF RVR FALLS  MOCLDY   N/A N/A N/A S7        29.85S
BAUDETTE       CLOUDY    70  67  90 SE6       29.87S
WASKISH        CLOUDY    70  66  88 S3        29.90S
CROOKSTON      MOCLDY    75  70  83 S10       29.85S
STEPHEN NDAWN    N/A     73  70  88 S7          N/A
GREENBUSH NDAW   N/A     73  68  83 S3          N/A
$$
  *****  WEATHER ACROSS CENTRAL AND WEST MINNESOTA  *****

CITY           SKY/WX    TMP DP  RH WIND       PRES   REMARKS
FOSSTON        CLOUDY    70  64  83 S8        29.90S
BEMIDJI        MOCLDY    70  65  82 S10       29.93R
PARK RAPIDS    PTCLDY    71  61  70 S10       29.94S
ELBOW LAKE     FAIR      68  64  88 SE10      29.94R
WADENA         PTCLDY    66  61  82 S7        29.95S
DETROIT LAKES  PTCLDY    70  63  78 S12       29.93S
MOORHEAD       MOCLDY    73  66  78 S15       29.88F
FERGUS FALLS   PTCLDY    70  63  78 S12       29.92S
MORRIS MN      PTCLDY    68  66  94 SE8       29.95R
STAPLES        PTCLDY    66  61  82 S8        29.96S
$$
  *****  WEATHER ELSEWHERE ACROSS MINNESOTA  *****

CITY           SKY/WX    TMP DP  RH WIND       PRES   REMARKS
DULUTH         PTCLDY    69  62  78 SW8       29.99S
INTRNTL FALLS  PTCLDY    67  64  90 SE5       29.91S
ELY            MOCLDY    66  61  82 CALM      29.97S
CLOQUET        PTCLDY    66  61  82 S5        29.99S
WHEATON        CLEAR     66  63  88 SE9       29.93S
BRAINERD       PTCLDY    66  62  87 S7        29.97F
HIBBING        MOCLDY    69  63  81 VRB3      29.97S
ALEXANDRIA     PTCLDY    68  63  84 S10       29.98S
SAINT CLOUD    CLOUDY    64  63  96 SE6       30.00S
MINNEAPOLIS    MOCLDY    72  63  73 S5        30.00F
$$

  *****  WEATHER ACROSS SOUTH DAKOTA  *****

CITY           SKY/WX    TMP DP  RH WIND       PRES   REMARKS
SIOUX FALLS    MOCLDY    70  64  81 S9        29.99S
BROOKINGS      CLEAR     68  63  83 SE9       30.00S
WATERTOWN      CLEAR     71  66  84 S12       29.95S
HURON          CLEAR     76  68  76 S13       29.92S
SISSETON         N/A     74  66  76 S7        29.90S
ABERDEEN       CLEAR     77  71  82 SE9       29.89S
MITCHELL       CLEAR     74  68  81 SE10      29.95S
PIERRE         CLEAR     82  65  56 SE10      29.87S
MOBRIDGE       CLEAR     80  70  71 SE7       29.84F
RAPID CITY     PTCLDY    81  57  43 SE7       29.92F
$$

  *****  SOME WEATHER IN NEARBY STATES *****

CITY           SKY/WX    TMP DP  RH WIND       PRES   REMARKS
GLASGOW MT     HAZE      85  43  22 E10       29.71F VSB 3/4
GREAT FALLS MT CLOUDY    73  57  57 S10       29.74S
CHEYENNE WY    CLEAR     79  39  23 S9        30.18S
SCOTTSBLUFF NE CLEAR     82  41  23 SE8       30.02S HAZE
OMAHA NE       CLOUDY    69  65  86 CALM      30.03S
DES MOINES IA  CLOUDY    71  64  78 NE5       30.03R
DAVENPORT IA   CLOUDY    70  67  90 NE3       30.02S
CHICAGO IL     LGT RAIN  67  66  97 N12       30.01S FOG
EAU CLAIRE WI  PTCLDY    65  62  90 CALM      30.03S
LA CROSSE WI   CLOUDY    69  60  73 SE5       30.04R
$$

  *****  SOME NATIONAL WEATHER *****

CITY           SKY/WX    TMP DP  RH WIND       PRES   REMARKS
LA GUARDIA NY  PTCLDY    77  59  53 S12G17    30.10S
RALEIGH NC     CLOUDY    75  62  64 CALM      30.14R
ATLANTA GA     CLOUDY    75  62  64 E6        30.14R
NEW ORLEANS LA MOCLDY    84  67  56 SE8       29.99S
OKLAHOMA CITY  PTCLDY    84  61  45 N9        29.96R
ALBUQUERQUE NM PTCLDY    83  42  23 E16       30.18S
SALT LAKE CITY PTSUNNY   94  40  15 S14       29.88F HX  90
LOS ANGELES CA MOSUNNY   78  66  66 W13       29.83F
BOISE ID       CLOUDY    86  42  21 CALM      29.80S
SEATTLE WA     CLOUDY    68  55  63 S16G25    29.76S
$$

*** WEATHER ACROSS MANITOBA...SASKATCHEWAN AND ONTARIO ***
                ***ONTARIO***

CITY           SKY/WX    TMP DP  RH WIND       PRES   REMARKS
GERALDTON      PTCLDY    64  63  94 W3        29.94S
THUNDER BAY    PTCLDY    61  57  88 NE5       29.95R
SIOUX LOOKOUT  MOCLDY    70  63  78 S7        29.89S
TORONTO        MOCLDY    72  59  64 CALM      30.08S
BIG TROUT LK   CLOUDY    70  57  64 SW5       29.73R
PICKLE LAKE    NOT AVBL
DRYDEN         PTCLDY    68  64  88 S10       29.90S
KENORA         CLOUDY    68  66  94 S13       29.87F
$$
                *** MANITOBA***

CITY           SKY/WX    TMP DP  RH WIND       PRES   REMARKS
BRANDON        MOCLDY    75  61  60 W9        29.75S SMOKE
DAUPHIN        CLEAR     75  59  57 W9        29.68R
ISLAND LAKE    CLOUDY    73  55  53 S9G20     29.62F
PILOT MOUND      N/A    N/A N/A N/A S10         N/A
THE PAS        PTCLDY    73  63  68 W9        29.57S
THOMPSON       MOCLDY    64  57  77 NE9       29.59R
WINNIPEG       PTCLDY    73  68  83 S16       29.75F
LYNN LAKE      CLEAR     61  54  77 MISG      29.69R
CHURCHILL      CLOUDY    48  48 100 NE15G21   29.77S FOG
GILLAM         LGT RAIN  61  59  94 NE10G18   29.65R
$$
                ***SASKATCHEWAN***

CITY           SKY/WX    TMP DP  RH WIND       PRES   REMARKS
ESTEVAN        SMOKE     75  57  53 E5        29.78F VSB 1
KINDERSLEY     MOCLDY    77  46  33 SE12      29.62F
LLOYDMINSTER   PTSUNNY   73  46  38 SE15      29.60F
PRINCE ALBERT  MOCLDY    75  63  64 SW3       29.68R
REGINA         CLOUDY    79  54  41 E5        29.75F SMOKE
YORKTON        CLEAR     75  55  50 SW8       29.74R
N. BATTLEFORD  CLEAR     73  50  43 E10       29.66F
LA RONGE       MOCLDY    73  52  46 N5        29.65R
SASKATOON      CLOUDY    75  55  50 S7        29.70F
SWIFT CURRENT  PTCLDY    77  54  44 SE12G17   29.70F HAZE
$$
NOTE: THESE ARE AUTOMATED STATIONS WITH LIMITED QUALITY CONTROL
      "FAIR" INDICATES FEW OR NO CLOUDS BELOW 12,000 FEET WITH NO
      SIGNIFICANT WEATHER AND/OR OBSTRUCTIONS TO VISIBILITY.
      SKY/WX - SKY CONDITION AND SIGNIFICANT WEATHER.
      TMP - AIR TEMPERATURE.    DP   - DEWPOINT TEMPERATURE.
      RH  - RELATIVE HUMIDITY.  PRES - PRESSURE.
      HX  - HEAT INDEX.         WCI  - WIND CHILL INDEX.
$



USA.gov is the U.S. government's official web portal to all federal, state and local government web resources and services.